TimeEST,TemperatureF,Dew PointF,Humidity,Sea Level PressureIn,VisibilityMPH,Wind Direction,Wind SpeedMPH,Gust SpeedMPH,PrecipitationIn,Events,Conditions,WindDirDegrees,DateUTC
12:53 AM,36.0,36.0,100,30.39,8.0,Calm,Calm,-,N/A,,Clear,0,2011-11-07 05:53:00
1:53 AM,35.1,35.1,100,30.38,7.0,WSW,3.5,-,N/A,,Clear,240,2011-11-07 06:53:00
2:53 AM,35.6,35.6,100,30.39,7.0,Calm,Calm,-,N/A,,Clear,0,2011-11-07 07:53:00
3:53 AM,36.0,35.1,97,30.38,9.0,Calm,Calm,-,N/A,,Clear,0,2011-11-07 08:53:00
4:53 AM,33.1,33.1,100,30.38,6.0,Calm,Calm,-,N/A,,Clear,0,2011-11-07 09:53:00
5:53 AM,33.1,32.0,96,30.39,7.0,Calm,Calm,-,N/A,,Clear,0,2011-11-07 10:53:00
6:53 AM,32.0,32.0,100,30.39,6.0,SW,3.5,-,N/A,,Clear,230,2011-11-07 11:53:00
7:53 AM,37.0,37.0,100,30.40,9.0,Calm,Calm,-,N/A,,Clear,0,2011-11-07 12:53:00
8:53 AM,44.1,41.0,89,30.40,10.0,Calm,Calm,-,N/A,,Clear,0,2011-11-07 13:53:00
9:53 AM,51.1,44.1,77,30.39,10.0,SW,4.6,-,N/A,,Clear,230,2011-11-07 14:53:00
10:53 AM,59.0,44.6,59,30.40,10.0,West,6.9,-,N/A,,Clear,260,2011-11-07 15:53:00
11:53 AM,62.6,44.6,52,30.38,10.0,SW,6.9,-,N/A,,Clear,230,2011-11-07 16:53:00
12:53 PM,64.0,43.0,46,30.34,10.0,Calm,Calm,-,N/A,,Clear,0,2011-11-07 17:53:00
1:53 PM,64.9,44.1,47,30.32,10.0,SW,4.6,-,N/A,,Clear,230,2011-11-07 18:53:00
2:53 PM,66.9,41.0,39,30.30,10.0,Calm,Calm,-,N/A,,Clear,0,2011-11-07 19:53:00
3:53 PM,66.2,41.0,40,30.31,10.0,Calm,Calm,-,N/A,,Clear,0,2011-11-07 20:53:00
4:53 PM,60.1,46.9,62,30.30,10.0,Calm,Calm,-,N/A,,Clear,0,2011-11-07 21:53:00
5:53 PM,54.0,44.1,69,30.30,10.0,Calm,Calm,-,N/A,,Clear,0,2011-11-07 22:53:00
6:53 PM,48.9,43.0,80,30.31,10.0,Calm,Calm,-,N/A,,Clear,0,2011-11-07 23:53:00
7:53 PM,45.0,43.0,93,30.31,10.0,Calm,Calm,-,N/A,,Clear,0,2011-11-08 00:53:00
8:53 PM,42.1,39.9,92,30.32,10.0,Calm,Calm,-,N/A,,Clear,0,2011-11-08 01:53:00
9:53 PM,39.9,39.0,97,30.33,10.0,Calm,Calm,-,N/A,,Clear,0,2011-11-08 02:53:00
10:53 PM,39.0,37.9,96,30.31,10.0,Calm,Calm,-,N/A,,Clear,0,2011-11-08 03:53:00
11:53 PM,37.0,36.0,96,30.30,9.0,Calm,Calm,-,N/A,,Clear,0,2011-11-08 04:53:00